AQT-D (44791 NORAD) Tracking and Keplerian Element Data

This shows tracking and keplerian element data for the satellite.

Feedback or suggestion? Click here.




ElementValue
Catalog44791
NameAQT-D
Epoch Orbit910
Epoch Day17.97160062
Epoch Year2020
RAAN16.2498
Inclination51.6441
Eccentricity0.0003694
Argument of Perigee141.3754
Mean Anonmoly218.75
Mean Motion15.5099984
Decay Rate-1.33E-06
L11 44791U 98067QW 20017.97160062 -.00000133 00000-0 55604-5 0 9999
L22 44791 51.6441 16.2498 0003694 141.3754 218.7500 15.50999840 9108

Live tracking and technical data element details for AQT-D (NORAD 44791). AQT-D can be tracked NOW for your location showing map with azimuth and elevation plus other details from your city location.

Track the satellite on the map from your city or location and see movement details for azimuth, elevation, latitude, longitude, range, height, and movement on the map or in text.







IsCatalogInMostPopularTable: catalog: 44791, numindb: 9
Update: records affected: 1



GetName: 44791 AQT-D

Hit Count: updated at: Mon, 20 Jan 2020 03:21:19 GMT